3DDIA FALY-FAUL

Flight info

Callsign 3DDIA
Flight time 0h 30m
Altitude 9000
Route APKIK
Aircraft DA62/L-SDFGRY/C

Departure

Time 2026-05-04 18:49
Airport Ladysmith Airport (FALY)

Arrival

Time 2026-05-04 19:19
Airport Prince Mangosuthu Buthelezi Airport (FAUL)
Time Latitude Longitude Altitude Speed Heading
2026-05-04 18:41 -28.57482 29.75011 3532 ft 0 kts 292°
2026-05-04 18:43 -28.57483 29.75019 3535 ft 2 kts 270°
2026-05-04 18:43 -28.57474 29.75029 3533 ft 0 kts 178°
2026-05-04 18:44 -28.57503 29.75057 3535 ft 8 kts 143°
2026-05-04 18:44 -28.57574 29.75086 3536 ft 12 kts 169°
2026-05-04 18:45 -28.57657 29.75104 3536 ft 12 kts 169°
2026-05-04 18:45 -28.57742 29.75126 3537 ft 12 kts 153°
2026-05-04 18:45 -28.57791 29.75187 3540 ft 9 kts 128°
2026-05-04 18:45 -28.57824 29.75237 3542 ft 7 kts 127°
2026-05-04 18:46 -28.57853 29.75279 3543 ft 7 kts 128°
2026-05-04 18:46 -28.57887 29.75328 3546 ft 9 kts 128°
2026-05-04 18:46 -28.57928 29.75389 3549 ft 11 kts 129°
2026-05-04 18:46 -28.57986 29.75475 3553 ft 16 kts 128°
2026-05-04 18:47 -28.58056 29.75574 3558 ft 15 kts 130°
2026-05-04 18:47 -28.58083 29.75614 3561 ft 0 kts 126°
2026-05-04 18:47 -28.58094 29.75627 3563 ft 6 kts 156°
2026-05-04 18:47 -28.58113 29.75573 3561 ft 20 kts 268°
2026-05-04 18:48 -28.58129 29.75211 3540 ft 72 kts 269°
2026-05-04 18:48 -28.58160 29.74535 3644 ft 93 kts 273°
2026-05-04 18:48 -28.58201 29.73769 3878 ft 102 kts 272°
2026-05-04 18:48 -28.58218 29.72948 4146 ft 104 kts 276°
2026-05-04 18:49 -28.58421 29.72166 4472 ft 114 kts 232°
2026-05-04 18:49 -28.59254 29.72024 4784 ft 139 kts 167°
2026-05-04 18:49 -28.59973 29.72780 5084 ft 146 kts 116°
2026-05-04 18:49 -28.60103 29.73872 5411 ft 135 kts 68°
2026-05-04 18:50 -28.59768 29.74826 5712 ft 129 kts 43°
2026-05-04 18:50 -28.59166 29.75555 6018 ft 127 kts 37°
2026-05-04 18:50 -28.58544 29.76265 6360 ft 126 kts 32°
2026-05-04 18:50 -28.57822 29.76783 6650 ft 125 kts 29°
2026-05-04 18:51 -28.57270 29.77582 6949 ft 135 kts 61°
2026-05-04 18:51 -28.56934 29.78593 7236 ft 139 kts 63°
2026-05-04 18:51 -28.56614 29.79631 7557 ft 138 kts 66°
2026-05-04 18:51 -28.56304 29.80662 7876 ft 138 kts 66°
2026-05-04 18:52 -28.55995 29.81693 8226 ft 137 kts 65°
2026-05-04 18:52 -28.55684 29.82729 8534 ft 139 kts 67°
2026-05-04 18:52 -28.55374 29.83766 8881 ft 138 kts 68°
2026-05-04 18:52 -28.55045 29.84859 8995 ft 159 kts 67°
2026-05-04 18:53 -28.54666 29.86124 9005 ft 179 kts 68°
2026-05-04 18:53 -28.54251 29.87510 9004 ft 191 kts 69°
2026-05-04 18:53 -28.53815 29.88970 9005 ft 199 kts 68°
2026-05-04 18:53 -28.53362 29.90484 9005 ft 205 kts 68°
2026-05-04 18:54 -28.52899 29.92029 9006 ft 208 kts 69°
2026-05-04 18:54 -28.52431 29.93590 9008 ft 209 kts 69°
2026-05-04 18:54 -28.51960 29.95161 8999 ft 211 kts 69°
2026-05-04 18:54 -28.51485 29.96741 8999 ft 211 kts 68°
2026-05-04 18:55 -28.51011 29.98323 8999 ft 212 kts 68°
2026-05-04 18:55 -28.50059 30.01489 8995 ft 211 kts 68°
2026-05-04 18:55 -28.49587 30.03059 8998 ft 210 kts 68°
2026-05-04 18:56 -28.49115 30.04627 8998 ft 210 kts 69°
2026-05-04 18:56 -28.48642 30.06196 8992 ft 210 kts 69°
2026-05-04 18:56 -28.48168 30.07769 8992 ft 211 kts 69°
2026-05-04 18:56 -28.47693 30.09345 8995 ft 211 kts 69°
2026-05-04 18:57 -28.47218 30.10923 8996 ft 211 kts 68°
2026-05-04 18:57 -28.46741 30.12505 8989 ft 212 kts 67°
2026-05-04 18:57 -28.46262 30.14090 8993 ft 213 kts 68°
2026-05-04 18:57 -28.45779 30.15687 8994 ft 214 kts 68°
2026-05-04 18:58 -28.45297 30.17284 8992 ft 214 kts 68°
2026-05-04 18:58 -28.44820 30.18862 8994 ft 214 kts 68°
2026-05-04 18:58 -28.44331 30.20480 8994 ft 214 kts 68°
2026-05-04 18:58 -28.43848 30.22075 8990 ft 214 kts 68°
2026-05-04 18:59 -28.43371 30.23653 8988 ft 214 kts 67°
2026-05-04 18:59 -28.42887 30.25250 8989 ft 214 kts 68°
2026-05-04 18:59 -28.42403 30.26847 8988 ft 214 kts 68°
2026-05-04 18:59 -28.41920 30.28441 8998 ft 213 kts 67°
2026-05-04 19:00 -28.41438 30.30033 8998 ft 213 kts 67°
2026-05-04 19:00 -28.40956 30.31620 8993 ft 212 kts 66°
2026-05-04 19:00 -28.40476 30.33201 8997 ft 211 kts 67°
2026-05-04 19:00 -28.39996 30.34779 8998 ft 212 kts 67°
2026-05-04 19:01 -28.39515 30.36364 8996 ft 212 kts 67°
2026-05-04 19:01 -28.39035 30.37943 8996 ft 212 kts 67°
2026-05-04 19:01 -28.38554 30.39523 8996 ft 212 kts 67°
2026-05-04 19:01 -28.38074 30.41104 8999 ft 211 kts 67°
2026-05-04 19:02 -28.37593 30.42682 9002 ft 212 kts 67°
2026-05-04 19:02 -28.37110 30.44269 9000 ft 213 kts 67°
2026-05-04 19:02 -28.36629 30.45848 8997 ft 211 kts 67°
2026-05-04 19:02 -28.36150 30.47419 9001 ft 210 kts 67°
2026-05-04 19:03 -28.35670 30.48991 9001 ft 211 kts 66°
2026-05-04 19:03 -28.35190 30.50564 9001 ft 211 kts 66°
2026-05-04 19:03 -28.34709 30.52141 8993 ft 211 kts 66°
2026-05-04 19:03 -28.34229 30.53715 8999 ft 211 kts 66°
2026-05-04 19:04 -28.33746 30.55291 8996 ft 211 kts 66°
2026-05-04 19:04 -28.33267 30.56861 8998 ft 210 kts 66°
2026-05-04 19:04 -28.33026 30.58506 8994 ft 214 kts 86°
2026-05-04 19:04 -28.33020 30.60198 8998 ft 215 kts 87°
2026-05-04 19:05 -28.33004 30.61899 8996 ft 215 kts 86°
2026-05-04 19:05 -28.32984 30.63575 8999 ft 216 kts 86°
2026-05-04 19:05 -28.32966 30.65278 8991 ft 216 kts 87°
2026-05-04 19:05 -28.32948 30.66985 8986 ft 216 kts 88°
2026-05-04 19:06 -28.32930 30.68685 8988 ft 215 kts 87°
2026-05-04 19:06 -28.32912 30.70383 8989 ft 215 kts 87°
2026-05-04 19:06 -28.32893 30.72083 8987 ft 215 kts 87°
2026-05-04 19:06 -28.32874 30.73780 8990 ft 215 kts 87°
2026-05-04 19:07 -28.32855 30.75469 8988 ft 214 kts 87°
2026-05-04 19:07 -28.32836 30.77159 8988 ft 214 kts 87°
2026-05-04 19:07 -28.32818 30.78853 8989 ft 215 kts 87°
2026-05-04 19:07 -28.32801 30.80548 8984 ft 214 kts 87°
2026-05-04 19:08 -28.32829 30.82240 8980 ft 215 kts 93°
2026-05-04 19:08 -28.32997 30.83927 8983 ft 216 kts 95°
2026-05-04 19:08 -28.33127 30.85622 8981 ft 215 kts 92°
2026-05-04 19:08 -28.33216 30.87318 8984 ft 215 kts 91°
2026-05-04 19:09 -28.33303 30.89012 8983 ft 215 kts 92°
2026-05-04 19:09 -28.33395 30.90699 8983 ft 214 kts 92°
2026-05-04 19:09 -28.33490 30.92387 8985 ft 214 kts 92°
2026-05-04 19:09 -28.33584 30.94075 8979 ft 213 kts 92°
2026-05-04 19:10 -28.33677 30.95759 8990 ft 215 kts 92°
2026-05-04 19:10 -28.33770 30.97450 8972 ft 215 kts 92°
2026-05-04 19:10 -28.33862 30.99140 8955 ft 215 kts 92°
2026-05-04 19:10 -28.33958 31.00834 8768 ft 215 kts 92°
2026-05-04 19:11 -28.34051 31.02539 8501 ft 218 kts 92°
2026-05-04 19:11 -28.34144 31.04266 8224 ft 221 kts 92°
2026-05-04 19:11 -28.34238 31.06012 7924 ft 220 kts 92°
2026-05-04 19:11 -28.34331 31.07730 7634 ft 216 kts 91°
2026-05-04 19:12 -28.34422 31.09412 7358 ft 212 kts 92°
2026-05-04 19:12 -28.34600 31.12714 6916 ft 206 kts 92°
2026-05-04 19:12 -28.34687 31.14330 6686 ft 205 kts 92°
2026-05-04 19:13 -28.34774 31.15954 6435 ft 208 kts 92°
2026-05-04 19:13 -28.34860 31.17609 6146 ft 211 kts 93°
2026-05-04 19:13 -28.34951 31.19279 5851 ft 213 kts 92°
2026-05-04 19:13 -28.35041 31.20945 5572 ft 210 kts 92°
2026-05-04 19:14 -28.35127 31.22595 5291 ft 207 kts 93°
2026-05-04 19:14 -28.35214 31.24223 5022 ft 208 kts 93°
2026-05-04 19:14 -28.35301 31.25860 4740 ft 206 kts 91°
2026-05-04 19:14 -28.35386 31.27475 4469 ft 204 kts 92°
2026-05-04 19:15 -28.35471 31.29084 4195 ft 204 kts 92°
2026-05-04 19:15 -28.35526 31.30144 4001 ft 201 kts 92°
2026-05-04 19:15 -28.35633 31.32170 3658 ft 185 kts 93°
2026-05-04 19:15 -28.35704 31.33534 3435 ft 162 kts 92°
2026-05-04 19:16 -28.35745 31.34343 3307 ft 147 kts 93°
2026-05-04 19:16 -28.35800 31.35382 3124 ft 119 kts 91°
2026-05-04 19:16 -28.35857 31.36518 2955 ft 104 kts 92°
2026-05-04 19:16 -28.35900 31.37331 2816 ft 103 kts 92°
2026-05-04 19:17 -28.35928 31.37881 2722 ft 103 kts 93°
2026-05-04 19:17 -28.35642 31.38849 2600 ft 96 kts 43°
2026-05-04 19:17 -28.35296 31.39147 2537 ft 91 kts 35°
2026-05-04 19:17 -28.34791 31.39561 2425 ft 88 kts 32°
2026-05-04 19:18 -28.34289 31.39948 2285 ft 89 kts 32°
2026-05-04 19:18 -28.33770 31.40343 2101 ft 89 kts 30°
2026-05-04 19:18 -28.33241 31.40732 1875 ft 91 kts 28°
2026-05-04 19:18 -28.32725 31.41122 1697 ft 85 kts 32°
2026-05-04 19:19 -28.32292 31.41453 1664 ft 61 kts 34°
2026-05-04 19:19 -28.32030 31.41655 1663 ft 19 kts 18°
2026-05-04 19:19 -28.31933 31.41659 1666 ft 11 kts
2026-05-04 19:19 -28.31871 31.41664 1669 ft 7 kts
2026-05-04 19:20 -28.31820 31.41670 1671 ft 8 kts 15°
2026-05-04 19:20 -28.31772 31.41694 1673 ft 8 kts 27°
2026-05-04 19:20 -28.31725 31.41726 1676 ft 10 kts 32°
2026-05-04 19:20 -28.31692 31.41783 1676 ft 0 kts 100°